User: anonymous   Login
Location: Barcelona
(41.3830°N, 2.1830°E)
Time: 07:09:08
(UTC+02:00)
Language:

ISS - Orbit

View from above orbital plane
View from above orbital plane
View from above satellite
View from above satellite

Ground track
Ground track

The orbit data is extracted from the following two-line orbital elements,

1 25544U 98067A   19169.52196145  .00016717  00000-0  10270-3 0  9017
2 25544  51.6394 354.6787 0007943  59.9642 300.2296 15.51212475 15458
Epoch (UTC): 18 June 2019 12:31:37
Eccentricity: 0.0007943
inclination: 51.6394°
perigee height: 408 km
apogee height: 418 km
right ascension of ascending node: 354.6787°
argument of perigee: 59.9642°
revolutions per day: 15.51212475
mean anomaly at epoch: 300.2296°
orbit number at epoch: 1545

The dashed part of the orbit path shows where the satellite is in the earth's shadow,  

DLR